loading
DOY 205 | 2024-07-23T02:58:23Z

THOR ABLESTAR DEB, 408

Orbit data source: Space-Track

THOR ABLESTAR DEB, 408 is space debris in LEO originally from a launch on Thu, 29 Jun 1961 UTC launched from the Air Force Eastern Test Range (AFETR). Debris objects in space refer to the collection of defunct objects orbiting the Earth. Examples of debris include non-operational satellites, rocket bodies, and fragments generated from explosions, collisions, or faulty payload assembly.

Loading next visibility...
Loading greatness...
THOR ABLESTAR DEB details
NORAD ID408
COSPAR ID
1961-015EH
Orbit
LEO
Last TLE update20 hours ago
Origin
Flag of USUSAF SSD (US)
ManufacturerUnknown
BusUnknown
MotorUnknown
MassWet unknown, Dry mass unknown
Launch date (UTC)
1961-06-29 (63 years ago)
Launch vehicleUnknown
Launch site
Air Force Eastern Test Range (AFETR)
Object type
Payload
Rocket body
Debris
Radar Cross SectionMedium (>0.1 m² and <1 m²)
Predictive object data (real-time)
Latitude55.79642°
Longitude55.73152°
Altitude1,013.009 km
Speed7.337 km/s
Apparent Right ascension05h 26m 26s
Apparent Declination13° 34' 16"
Sunlit
Object is in daylight
Predictive observer data (real-time)
Local Sidereal Time16:03:18
Azimuth335.679° NNW
Elevation-33.127°
Doppler factor1
Orbital elements
Apogee1,030.109 km
Perigee921.723 km
Semi-major axis7,354.053 km
Eccentricity0.0073691
Inclination66.7883°
RAAN327.1151°
Arg. of periapsis236.8897°
True anomaly146.91876°
Mean anomaly146.4557°
Mean motion3.44154 °/min
BSTAR0.0010309
Period104.6 mins
Definitive object data (Epoch: 2024-07-22T07:20:03.621Z)
Latitude21.80419°
Longitude-73.61314°
Altitude1,024.632 km
Speed7.319 km/s
True Right ascension22h 27m 46s
True Declination21° 41' 24"
Sunlit
Object was in full shadow at TLE epoch
TLE from 20 hours ago
0 THOR ABLESTAR DEB
1 00408U 61015EH  24204.30559747  .00000950  00000-0  10309-2 0  9996
2 00408  66.7883 327.1151 0073691 236.8897 146.4557 13.76168040210046
Epoch: 2024-07-22T07:20Z
No data available

THOR ABLESTAR DEB Visibility forecast

Observer location: 39.9160978°, -105.1181434

THOR ABLESTAR DEB is not visible in the next 10 days
Span
Click to sort rows by Start time (UTC) header in descending order
Start Az.
Max El. time (UTC)
Max El. Az.
Max El.
End time (UTC)
End Az.